Welcome to Des Moines Iowa Weather. I am an independent private personal weather station on the Northwest Side of Des Moines, Iowa. Just East of Windsor Heights and just West of Glendale . This site is also mobile friendly.

There are no active watches, warnings or advisories


Visit our other weather sites:

Historical Data

Weather Station Setup



Weather Underground History page Text

Daily Summary for March 3, 2018 Units:  English    Metric   Both
« Previous Day
Next Day »
Daily Weekly Monthly Yearly Custom
  High: Low: Average:
Temperature: 56.6 °F 34.4 °F 44.5 °F
Dew Point: 36.0 °F 26.0 °F 29.6 °F
Humidity: 74 % 37 % 57 %
Wind Speed: 10.0 mph 0.0 mph 3.6 mph
Wind Gust: 25.0 mph - -
Wind:- - SSE
Pressure: 30.30 in 30.14 in -
Precipitation: 0.00 in    
Historical Graphs
 
 
Tabular Data for March 3, 2018
Time Temperature Dew Point Pressure Wind Wind Speed Wind Gust Humidity Rainfall Rate (Hourly)
00:00 37.9 °F 26.4 °F 30.29 in SSE 3.0 mph 9.0 mph 63 % 0.00 in
00:05 37.8 °F 26.4 °F 30.29 in SE 3.0 mph 8.0 mph 63 % 0.00 in
00:08 37.8 °F 26.0 °F 30.28 in ESE 4.0 mph 9.0 mph 63 % 0.00 in
00:10 37.8 °F 26.4 °F 30.29 in SE 3.0 mph 8.0 mph 63 % 0.00 in
00:15 37.8 °F 26.4 °F 30.29 in SE 3.0 mph 8.0 mph 63 % 0.00 in
00:20 37.8 °F 26.7 °F 30.29 in SE 3.0 mph 9.0 mph 64 % 0.00 in
00:23 37.6 °F 26.0 °F 30.29 in SSE 5.0 mph 9.0 mph 64 % 0.00 in
00:25 37.8 °F 26.7 °F 30.29 in SE 3.0 mph 9.0 mph 64 % 0.00 in
00:30 37.8 °F 26.7 °F 30.29 in SE 3.0 mph 9.0 mph 64 % 0.00 in
00:35 37.6 °F 26.5 °F 30.29 in South 3.0 mph 9.0 mph 64 % 0.00 in
00:38 37.5 °F 26.0 °F 30.30 in SE 3.0 mph 10.0 mph 64 % 0.00 in
00:40 37.6 °F 26.5 °F 30.29 in South 3.0 mph 9.0 mph 64 % 0.00 in
00:45 37.6 °F 26.5 °F 30.29 in South 3.0 mph 9.0 mph 64 % 0.00 in
00:50 37.4 °F 26.4 °F 30.30 in SE 3.0 mph 11.0 mph 64 % 0.00 in
00:53 37.2 °F 26.0 °F 30.30 in SSE 1.0 mph 7.0 mph 65 % 0.00 in
00:55 37.4 °F 26.4 °F 30.30 in SE 3.0 mph 11.0 mph 64 % 0.00 in
01:00 37.4 °F 26.4 °F 30.30 in SE 3.0 mph 11.0 mph 64 % 0.00 in
01:05 37.1 °F 26.4 °F 30.30 in SSE 3.0 mph 8.0 mph 65 % 0.00 in
01:08 37.1 °F 26.0 °F 30.30 in ESE 1.0 mph 9.0 mph 65 % 0.00 in
01:10 37.1 °F 26.4 °F 30.30 in SSE 3.0 mph 8.0 mph 65 % 0.00 in
01:15 37.1 °F 26.4 °F 30.30 in SSE 3.0 mph 8.0 mph 65 % 0.00 in
01:20 37.1 °F 26.4 °F 30.30 in SSE 3.0 mph 9.0 mph 65 % 0.00 in
01:23 37.0 °F 26.0 °F 30.30 in SSW 1.0 mph 7.0 mph 65 % 0.00 in
01:25 37.1 °F 26.4 °F 30.30 in SSE 3.0 mph 9.0 mph 65 % 0.00 in
01:30 37.1 °F 26.4 °F 30.30 in SSE 3.0 mph 9.0 mph 65 % 0.00 in
01:35 37.0 °F 26.4 °F 30.30 in SSE 3.0 mph 9.0 mph 65 % 0.00 in
01:39 36.9 °F 26.0 °F 30.30 in South 3.0 mph 9.0 mph 65 % 0.00 in
01:40 37.0 °F 26.4 °F 30.30 in SSE 3.0 mph 9.0 mph 65 % 0.00 in
01:45 37.0 °F 26.4 °F 30.30 in SSE 3.0 mph 9.0 mph 65 % 0.00 in
01:50 36.8 °F 26.1 °F 30.30 in SSE 3.0 mph 9.0 mph 65 % 0.00 in
01:54 36.7 °F 26.0 °F 30.30 in ESE 1.0 mph 7.0 mph 66 % 0.00 in
01:55 36.8 °F 26.1 °F 30.30 in SSE 3.0 mph 9.0 mph 65 % 0.00 in
02:00 36.8 °F 26.1 °F 30.30 in SSE 3.0 mph 9.0 mph 65 % 0.00 in
02:05 36.6 °F 26.3 °F 30.30 in SSE 3.0 mph 13.0 mph 66 % 0.00 in
02:09 36.5 °F 26.0 °F 30.30 in South 4.0 mph 8.0 mph 66 % 0.00 in
02:10 36.6 °F 26.3 °F 30.30 in SSE 3.0 mph 13.0 mph 66 % 0.00 in
02:15 36.6 °F 26.3 °F 30.30 in SSE 3.0 mph 13.0 mph 66 % 0.00 in
02:20 36.4 °F 26.1 °F 30.30 in SE 2.0 mph 8.0 mph 66 % 0.00 in
02:24 36.2 °F 26.0 °F 30.30 in Calm   7.0 mph 67 % 0.00 in
02:25 36.4 °F 26.1 °F 30.30 in SE 2.0 mph 8.0 mph 66 % 0.00 in
02:30 36.4 °F 26.1 °F 30.30 in SE 2.0 mph 8.0 mph 66 % 0.00 in
02:35 36.0 °F 26.1 °F 30.30 in SSE 2.0 mph 7.0 mph 67 % 0.00 in
02:39 35.8 °F 26.0 °F 30.29 in Calm   3.0 mph 68 % 0.00 in
02:40 36.0 °F 26.1 °F 30.30 in SSE 2.0 mph 7.0 mph 67 % 0.00 in
02:45 36.0 °F 26.1 °F 30.30 in SSE 2.0 mph 7.0 mph 67 % 0.00 in
02:50 35.7 °F 26.2 °F 30.29 in East 1.0 mph 6.0 mph 68 % 0.00 in
02:54 35.5 °F 26.0 °F 30.29 in ESE 2.0 mph 4.0 mph 69 % 0.00 in
02:55 35.7 °F 26.2 °F 30.29 in East 1.0 mph 6.0 mph 68 % 0.00 in
03:00 35.7 °F 26.2 °F 30.29 in East 1.0 mph 6.0 mph 68 % 0.00 in
03:05 35.4 °F 26.3 °F 30.29 in ESE 2.0 mph 4.0 mph 69 % 0.00 in
03:09 35.3 °F 26.0 °F 30.29 in SSE 1.0 mph 6.0 mph 69 % 0.00 in
03:10 35.4 °F 26.3 °F 30.29 in ESE 2.0 mph 4.0 mph 69 % 0.00 in
03:15 35.4 °F 26.3 °F 30.29 in ESE 2.0 mph 4.0 mph 69 % 0.00 in
03:20 35.3 °F 26.5 °F 30.29 in SSE 2.0 mph 6.0 mph 70 % 0.00 in
03:24 35.2 °F 26.0 °F 30.29 in SSE 2.0 mph 6.0 mph 70 % 0.00 in
03:25 35.3 °F 26.5 °F 30.29 in SSE 2.0 mph 6.0 mph 70 % 0.00 in
03:30 35.3 °F 26.5 °F 30.29 in SSE 2.0 mph 6.0 mph 70 % 0.00 in
03:35 35.1 °F 26.3 °F 30.29 in SE 1.0 mph 6.0 mph 70 % 0.00 in
03:39 35.0 °F 26.0 °F 30.28 in SE 1.0 mph 6.0 mph 70 % 0.00 in
03:40 35.1 °F 26.3 °F 30.29 in SE 1.0 mph 6.0 mph 70 % 0.00 in
03:45 35.1 °F 26.3 °F 30.29 in SE 1.0 mph 6.0 mph 70 % 0.00 in
03:50 35.0 °F 26.6 °F 30.28 in SE 2.0 mph 6.0 mph 71 % 0.00 in
03:54 35.0 °F 26.0 °F 30.28 in ESE 3.0 mph 8.0 mph 71 % 0.00 in
03:55 35.0 °F 26.6 °F 30.28 in SE 2.0 mph 6.0 mph 71 % 0.00 in
04:00 35.0 °F 26.6 °F 30.28 in SE 2.0 mph 6.0 mph 71 % 0.00 in
04:05 35.0 °F 26.6 °F 30.28 in SE 2.0 mph 9.0 mph 71 % 0.00 in
04:09 35.0 °F 26.0 °F 30.28 in South 1.0 mph 7.0 mph 71 % 0.00 in
04:10 35.0 °F 26.6 °F 30.28 in SE 2.0 mph 9.0 mph 71 % 0.00 in
04:15 35.0 °F 26.6 °F 30.28 in SE 2.0 mph 9.0 mph 71 % 0.00 in
04:20 35.0 °F 26.6 °F 30.28 in SE 2.0 mph 8.0 mph 71 % 0.00 in
04:24 35.0 °F 26.0 °F 30.28 in SE 1.0 mph 4.0 mph 71 % 0.00 in
04:25 35.0 °F 26.6 °F 30.28 in SE 2.0 mph 8.0 mph 71 % 0.00 in
04:30 35.0 °F 26.6 °F 30.28 in SE 2.0 mph 8.0 mph 71 % 0.00 in
04:35 35.1 °F 26.6 °F 30.27 in SE 2.0 mph 8.0 mph 71 % 0.00 in
04:39 35.1 °F 27.0 °F 30.27 in SSE 3.0 mph 6.0 mph 71 % 0.00 in
04:40 35.1 °F 26.6 °F 30.27 in SE 2.0 mph 8.0 mph 71 % 0.00 in
04:45 35.1 °F 26.6 °F 30.27 in SE 2.0 mph 8.0 mph 71 % 0.00 in
04:50 35.0 °F 26.6 °F 30.27 in SSE 2.0 mph 6.0 mph 71 % 0.00 in
04:54 34.9 °F 27.0 °F 30.28 in SSE 1.0 mph 6.0 mph 72 % 0.00 in
04:55 35.0 °F 26.6 °F 30.27 in SSE 2.0 mph 6.0 mph 71 % 0.00 in
05:00 35.0 °F 26.6 °F 30.27 in SSE 2.0 mph 6.0 mph 71 % 0.00 in
05:05 34.9 °F 26.8 °F 30.28 in SSE 2.0 mph 6.0 mph 72 % 0.00 in
05:09 34.8 °F 27.0 °F 30.28 in SSE 2.0 mph 5.0 mph 72 % 0.00 in
05:10 34.9 °F 26.8 °F 30.28 in SSE 2.0 mph 6.0 mph 72 % 0.00 in
05:15 34.9 °F 26.8 °F 30.28 in SSE 2.0 mph 6.0 mph 72 % 0.00 in
05:20 34.7 °F 26.6 °F 30.28 in SSE 1.0 mph 5.0 mph 72 % 0.00 in
05:24 34.6 °F 27.0 °F 30.28 in ESE 2.0 mph 3.0 mph 73 % 0.00 in
05:25 34.7 °F 26.6 °F 30.28 in SSE 1.0 mph 5.0 mph 72 % 0.00 in
05:30 34.7 °F 26.6 °F 30.28 in SSE 1.0 mph 5.0 mph 72 % 0.00 in
05:35 34.6 °F 26.9 °F 30.28 in ESE 1.0 mph 5.0 mph 73 % 0.00 in
05:39 34.5 °F 27.0 °F 30.28 in SSE 2.0 mph 6.0 mph 73 % 0.00 in
05:40 34.6 °F 26.9 °F 30.28 in ESE 1.0 mph 5.0 mph 73 % 0.00 in
05:45 34.6 °F 26.9 °F 30.28 in ESE 1.0 mph 5.0 mph 73 % 0.00 in
05:50 34.5 °F 26.8 °F 30.28 in SSE 2.0 mph 7.0 mph 73 % 0.00 in
05:54 34.5 °F 27.0 °F 30.28 in SSE 2.0 mph 6.0 mph 73 % 0.00 in
05:55 34.5 °F 26.8 °F 30.28 in SSE 2.0 mph 7.0 mph 73 % 0.00 in
06:00 34.5 °F 26.8 °F 30.28 in SSE 2.0 mph 7.0 mph 73 % 0.00 in
06:05 34.5 °F 26.8 °F 30.29 in SE 2.0 mph 6.0 mph 73 % 0.00 in
06:09 34.5 °F 27.0 °F 30.29 in ESE 1.0 mph 6.0 mph 73 % 0.00 in
06:10 34.5 °F 26.8 °F 30.29 in SE 2.0 mph 6.0 mph 73 % 0.00 in
06:15 34.5 °F 26.8 °F 30.29 in SE 2.0 mph 6.0 mph 73 % 0.00 in
06:20 34.5 °F 26.8 °F 30.29 in SE 2.0 mph 6.0 mph 73 % 0.00 in
06:24 34.5 °F 27.0 °F 30.29 in Calm   7.0 mph 73 % 0.00 in
06:25 34.5 °F 26.8 °F 30.29 in SE 2.0 mph 6.0 mph 73 % 0.00 in
06:30 34.5 °F 26.8 °F 30.29 in SE 2.0 mph 6.0 mph 73 % 0.00 in
06:35 34.5 °F 26.8 °F 30.29 in SSE 2.0 mph 7.0 mph 73 % 0.00 in
06:39 34.5 °F 27.0 °F 30.29 in Calm   5.0 mph 74 % 0.00 in
06:40 34.5 °F 26.8 °F 30.29 in SSE 2.0 mph 7.0 mph 73 % 0.00 in
06:45 34.5 °F 26.8 °F 30.29 in SSE 2.0 mph 7.0 mph 73 % 0.00 in
06:50 34.4 °F 27.0 °F 30.30 in SE 1.0 mph 5.0 mph 74 % 0.00 in
06:54 34.4 °F 27.0 °F 30.29 in SE 1.0 mph 4.0 mph 74 % 0.00 in
06:55 34.4 °F 27.0 °F 30.30 in SE 1.0 mph 5.0 mph 74 % 0.00 in
07:00 34.4 °F 27.0 °F 30.30 in SE 1.0 mph 5.0 mph 74 % 0.00 in
07:05 34.4 °F 27.0 °F 30.29 in SE 2.0 mph 7.0 mph 74 % 0.00 in
07:09 34.5 °F 27.0 °F 30.29 in SSE 2.0 mph 7.0 mph 74 % 0.00 in
07:10 34.4 °F 27.0 °F 30.29 in SE 2.0 mph 7.0 mph 74 % 0.00 in
07:15 34.4 °F 27.0 °F 30.29 in SE 2.0 mph 7.0 mph 74 % 0.00 in
07:20 34.6 °F 27.2 °F 30.29 in SSE 2.0 mph 7.0 mph 74 % 0.00 in
07:24 34.7 °F 27.0 °F 30.29 in ESE 1.0 mph 7.0 mph 73 % 0.00 in
07:25 34.6 °F 27.2 °F 30.29 in SSE 2.0 mph 7.0 mph 74 % 0.00 in
07:30 34.6 °F 27.2 °F 30.29 in SSE 2.0 mph 7.0 mph 74 % 0.00 in
07:35 34.9 °F 27.1 °F 30.29 in SSE 2.0 mph 8.0 mph 73 % 0.00 in
07:39 35.2 °F 27.0 °F 30.29 in ESE 5.0 mph 7.0 mph 73 % 0.00 in
07:40 34.9 °F 27.1 °F 30.29 in SSE 2.0 mph 8.0 mph 73 % 0.00 in
07:45 34.9 °F 27.1 °F 30.29 in SSE 2.0 mph 8.0 mph 73 % 0.00 in
07:50 35.3 °F 27.5 °F 30.30 in SSE 2.0 mph 9.0 mph 73 % 0.00 in
07:54 35.7 °F 27.0 °F 30.29 in Calm   11.0 mph 72 % 0.00 in
07:55 35.3 °F 27.5 °F 30.30 in SSE 2.0 mph 9.0 mph 73 % 0.00 in
08:00 35.3 °F 27.5 °F 30.30 in SSE 2.0 mph 9.0 mph 73 % 0.00 in
08:05 35.9 °F 27.4 °F 30.30 in SE 3.0 mph 11.0 mph 71 % 0.00 in
08:09 36.6 °F 28.0 °F 30.29 in SSE 2.0 mph 8.0 mph 71 % 0.00 in
08:10 35.9 °F 27.4 °F 30.30 in SE 3.0 mph 11.0 mph 71 % 0.00 in
08:15 35.9 °F 27.4 °F 30.30 in SE 3.0 mph 11.0 mph 71 % 0.00 in
08:20 36.9 °F 27.7 °F 30.30 in SSE 3.0 mph 12.0 mph 69 % 0.00 in
08:24 37.6 °F 28.0 °F 30.29 in South 7.0 mph 12.0 mph 68 % 0.00 in
08:25 36.9 °F 27.7 °F 30.30 in SSE 3.0 mph 12.0 mph 69 % 0.00 in
08:30 36.9 °F 27.7 °F 30.30 in SSE 3.0 mph 12.0 mph 69 % 0.00 in
08:35 37.9 °F 27.9 °F 30.29 in SSE 4.0 mph 14.0 mph 67 % 0.00 in
08:39 38.7 °F 28.0 °F 30.29 in SSE 4.0 mph 11.0 mph 66 % 0.00 in
08:40 37.9 °F 27.9 °F 30.29 in SSE 4.0 mph 14.0 mph 67 % 0.00 in
08:45 37.9 °F 27.9 °F 30.29 in SSE 4.0 mph 14.0 mph 67 % 0.00 in
08:50 39.0 °F 28.3 °F 30.30 in SSE 4.0 mph 12.0 mph 65 % 0.00 in
08:54 39.5 °F 28.0 °F 30.29 in SE 2.0 mph 15.0 mph 64 % 0.00 in
08:55 39.0 °F 28.3 °F 30.30 in SSE 4.0 mph 12.0 mph 65 % 0.00 in
09:00 39.0 °F 28.3 °F 30.30 in SSE 4.0 mph 12.0 mph 65 % 0.00 in
09:05 39.8 °F 28.6 °F 30.29 in SSE 5.0 mph 16.0 mph 64 % 0.00 in
09:09 40.4 °F 29.0 °F 30.29 in SE 8.0 mph 11.0 mph 63 % 0.00 in
09:10 39.8 °F 28.6 °F 30.29 in SSE 5.0 mph 16.0 mph 64 % 0.00 in
09:15 39.8 °F 28.6 °F 30.29 in SSE 5.0 mph 16.0 mph 64 % 0.00 in
09:20 40.8 °F 28.8 °F 30.29 in SSE 4.0 mph 11.0 mph 62 % 0.00 in
09:24 41.6 °F 29.0 °F 30.29 in SSE 2.0 mph 10.0 mph 61 % 0.00 in
09:25 40.8 °F 28.8 °F 30.29 in SSE 4.0 mph 11.0 mph 62 % 0.00 in
09:30 40.8 °F 28.8 °F 30.29 in SSE 4.0 mph 11.0 mph 62 % 0.00 in
09:35 42.1 °F 29.6 °F 30.28 in SSE 4.0 mph 13.0 mph 61 % 0.00 in
09:40 43.0 °F 29.0 °F 30.28 in SE 5.0 mph 9.0 mph 59 % 0.00 in
09:45 42.1 °F 29.6 °F 30.28 in SSE 4.0 mph 13.0 mph 61 % 0.00 in
09:50 43.3 °F 29.5 °F 30.28 in SSE 5.0 mph 15.0 mph 58 % 0.00 in
09:55 44.0 °F 29.0 °F 30.28 in South 4.0 mph 9.0 mph 57 % 0.00 in
10:00 43.3 °F 29.5 °F 30.28 in SSE 5.0 mph 15.0 mph 58 % 0.00 in
10:05 44.7 °F 30.0 °F 30.28 in SE 4.0 mph 4.0 mph 56 % 0.00 in
10:10 45.1 °F 30.0 °F 30.28 in East 3.0 mph 11.0 mph 55 % 0.00 in
10:15 45.5 °F 30.3 °F 30.28 in SE 5.0 mph 9.0 mph 55 % 0.00 in
10:20 45.8 °F 30.1 °F 30.28 in SE 5.0 mph 8.0 mph 54 % 0.00 in
10:25 46.3 °F 30.0 °F 30.28 in South 7.0 mph 11.0 mph 53 % 0.00 in
10:30 46.6 °F 30.4 °F 30.28 in SSE 5.0 mph 10.0 mph 53 % 0.00 in
10:35 46.7 °F 30.5 °F 30.27 in South 5.0 mph 13.0 mph 53 % 0.00 in
10:40 47.4 °F 30.0 °F 30.28 in ESE 4.0 mph 17.0 mph 52 % 0.00 in
10:45 46.7 °F 30.5 °F 30.27 in South 5.0 mph 13.0 mph 53 % 0.00 in
10:50 47.6 °F 30.9 °F 30.28 in SSE 5.0 mph 17.0 mph 52 % 0.00 in
10:55 48.3 °F 31.0 °F 30.27 in SSE 2.0 mph 13.0 mph 51 % 0.00 in
11:00 47.6 °F 30.9 °F 30.28 in SSE 5.0 mph 17.0 mph 52 % 0.00 in
11:05 48.7 °F 31.4 °F 30.27 in SSE 4.0 mph 13.0 mph 51 % 0.00 in
11:10 49.2 °F 31.0 °F 30.27 in ESE 3.0 mph 14.0 mph 50 % 0.00 in
11:15 48.7 °F 31.4 °F 30.27 in SSE 4.0 mph 13.0 mph 51 % 0.00 in
11:20 49.1 °F 31.3 °F 30.27 in SSE 5.0 mph 15.0 mph 50 % 0.00 in
11:25 49.5 °F 31.0 °F 30.27 in South 10.0 mph 17.0 mph 50 % 0.00 in
11:30 49.1 °F 31.3 °F 30.27 in SSE 5.0 mph 15.0 mph 50 % 0.00 in
11:35 49.8 °F 31.9 °F 30.27 in SSE 5.0 mph 17.0 mph 50 % 0.00 in
11:40 50.4 °F 32.0 °F 30.27 in SSE 6.0 mph 14.0 mph 49 % 0.00 in
11:45 49.8 °F 31.9 °F 30.27 in SSE 5.0 mph 17.0 mph 50 % 0.00 in
11:50 50.7 °F 32.2 °F 30.26 in SSE 6.0 mph 15.0 mph 49 % 0.00 in
11:55 51.7 °F 32.0 °F 30.26 in SSE 2.0 mph 10.0 mph 48 % 0.00 in
12:00 50.7 °F 32.2 °F 30.26 in SSE 6.0 mph 15.0 mph 49 % 0.00 in
12:05 51.9 °F 32.8 °F 30.26 in SSE 5.0 mph 12.0 mph 48 % 0.00 in
12:10 52.1 °F 33.0 °F 30.25 in SSE 6.0 mph 21.0 mph 48 % 0.00 in
12:15 51.9 °F 32.8 °F 30.26 in SSE 5.0 mph 12.0 mph 48 % 0.00 in
12:20 52.3 °F 32.7 °F 30.25 in SSE 6.0 mph 21.0 mph 47 % 0.00 in
12:25 53.7 °F 34.0 °F 30.24 in ESE 2.0 mph 11.0 mph 47 % 0.00 in
12:30 52.3 °F 32.7 °F 30.25 in SSE 6.0 mph 21.0 mph 47 % 0.00 in
12:35 53.7 °F 33.4 °F 30.24 in SSE 4.0 mph 19.0 mph 46 % 0.00 in
12:40 54.0 °F 34.0 °F 30.23 in SSE 6.0 mph 13.0 mph 47 % 0.00 in
12:45 53.7 °F 33.4 °F 30.24 in SSE 4.0 mph 19.0 mph 46 % 0.00 in
12:50 54.3 °F 34.0 °F 30.23 in SSE 6.0 mph 15.0 mph 46 % 0.00 in
12:55 54.9 °F 34.0 °F 30.22 in South 3.0 mph 15.0 mph 46 % 0.00 in
13:00 54.3 °F 34.0 °F 30.23 in SSE 6.0 mph 15.0 mph 46 % 0.00 in
13:05 54.9 °F 34.5 °F 30.23 in SSE 6.0 mph 15.0 mph 46 % 0.00 in
13:10 55.1 °F 34.0 °F 30.21 in ESE 7.0 mph 13.0 mph 45 % 0.00 in
13:15 54.9 °F 34.5 °F 30.23 in SSE 6.0 mph 15.0 mph 46 % 0.00 in
13:20 54.8 °F 34.4 °F 30.22 in SE 5.0 mph 15.0 mph 46 % 0.00 in
13:25 55.0 °F 35.0 °F 30.21 in South 4.0 mph 14.0 mph 47 % 0.00 in
13:30 54.8 °F 34.4 °F 30.22 in SE 5.0 mph 15.0 mph 46 % 0.00 in
13:35 54.8 °F 35.0 °F 30.21 in SE 5.0 mph 14.0 mph 47 % 0.00 in
13:40 55.7 °F 35.0 °F 30.20 in South 5.0 mph 13.0 mph 46 % 0.00 in
13:45 54.8 °F 35.0 °F 30.21 in SE 5.0 mph 14.0 mph 47 % 0.00 in
13:50 55.6 °F 35.7 °F 30.20 in South 6.0 mph 18.0 mph 47 % 0.00 in
13:55 56.2 °F 35.0 °F 30.19 in SE 7.0 mph 12.0 mph 46 % 0.00 in
14:00 55.6 °F 35.7 °F 30.20 in South 6.0 mph 18.0 mph 47 % 0.00 in
14:05 56.4 °F 35.3 °F 30.19 in SSE 6.0 mph 14.0 mph 45 % 0.00 in
14:10 56.5 °F 36.0 °F 30.18 in SSE 8.0 mph 15.0 mph 46 % 0.00 in
14:15 56.4 °F 35.3 °F 30.19 in SSE 6.0 mph 14.0 mph 45 % 0.00 in
14:20 56.6 °F 35.5 °F 30.18 in SSE 6.0 mph 16.0 mph 45 % 0.00 in
14:25 56.6 °F 35.5 °F 30.18 in SSE 6.0 mph 16.0 mph 45 % 0.00 in
14:26 56.3 °F 35.0 °F 30.18 in SE 5.0 mph 12.0 mph 45 % 0.00 in
14:30 56.6 °F 35.5 °F 30.18 in SSE 6.0 mph 16.0 mph 45 % 0.00 in
14:35 56.4 °F 35.3 °F 30.18 in SSE 6.0 mph 23.0 mph 45 % 0.00 in
14:40 56.4 °F 35.3 °F 30.18 in SSE 6.0 mph 23.0 mph 45 % 0.00 in
14:45 56.4 °F 35.3 °F 30.18 in SSE 6.0 mph 23.0 mph 45 % 0.00 in
14:50 56.6 °F 35.0 °F 30.17 in SSE 5.0 mph 19.0 mph 44 % 0.00 in
14:55 56.6 °F 34.4 °F 30.17 in SE 6.0 mph 19.0 mph 43 % 0.00 in
14:56 55.7 °F 34.0 °F 30.17 in SE 5.0 mph 21.0 mph 44 % 0.00 in
15:00 56.6 °F 34.4 °F 30.17 in SE 6.0 mph 19.0 mph 43 % 0.00 in
15:05 55.7 °F 34.7 °F 30.17 in SSE 6.0 mph 23.0 mph 45 % 0.00 in
15:10 55.7 °F 34.7 °F 30.17 in SSE 6.0 mph 23.0 mph 45 % 0.00 in
15:11 56.6 °F 34.0 °F 30.16 in SSE 9.0 mph 18.0 mph 43 % 0.00 in
15:15 55.7 °F 34.7 °F 30.17 in SSE 6.0 mph 23.0 mph 45 % 0.00 in
15:20 56.6 °F 33.8 °F 30.17 in SE 6.0 mph 22.0 mph 42 % 0.00 in
15:25 56.6 °F 33.8 °F 30.17 in SE 6.0 mph 22.0 mph 42 % 0.00 in
15:30 56.6 °F 34.0 °F 30.16 in SSW 4.0 mph 15.0 mph 42 % 0.00 in
15:35 56.5 °F 33.7 °F 30.16 in SSE 6.0 mph 15.0 mph 42 % 0.00 in
15:40 56.5 °F 33.7 °F 30.16 in SSE 6.0 mph 15.0 mph 42 % 0.00 in
15:41 56.2 °F 33.0 °F 30.16 in South 7.0 mph 14.0 mph 42 % 0.00 in
15:45 56.5 °F 33.7 °F 30.16 in SSE 6.0 mph 15.0 mph 42 % 0.00 in
15:50 56.0 °F 32.6 °F 30.16 in SSE 6.0 mph 14.0 mph 41 % 0.00 in
15:55 56.0 °F 32.6 °F 30.16 in SSE 6.0 mph 14.0 mph 41 % 0.00 in
15:56 55.8 °F 32.0 °F 30.15 in ESE 8.0 mph 12.0 mph 40 % 0.00 in
16:00 56.0 °F 32.6 °F 30.16 in SSE 6.0 mph 14.0 mph 41 % 0.00 in
16:05 55.7 °F 31.8 °F 30.16 in SSE 7.0 mph 17.0 mph 40 % 0.00 in
16:10 55.7 °F 31.8 °F 30.16 in SSE 7.0 mph 17.0 mph 40 % 0.00 in
16:11 56.0 °F 31.0 °F 30.15 in South 2.0 mph 18.0 mph 39 % 0.00 in
16:15 55.7 °F 31.8 °F 30.16 in SSE 7.0 mph 17.0 mph 40 % 0.00 in
16:20 55.9 °F 30.7 °F 30.15 in SSE 6.0 mph 19.0 mph 38 % 0.00 in
16:25 55.9 °F 30.7 °F 30.15 in SSE 6.0 mph 19.0 mph 38 % 0.00 in
16:26 55.8 °F 30.0 °F 30.15 in SSE 4.0 mph 20.0 mph 37 % 0.00 in
16:30 55.9 °F 30.7 °F 30.15 in SSE 6.0 mph 19.0 mph 38 % 0.00 in
16:35 55.8 °F 29.9 °F 30.15 in SSE 6.0 mph 24.0 mph 37 % 0.00 in
16:40 55.8 °F 29.9 °F 30.15 in SSE 6.0 mph 24.0 mph 37 % 0.00 in
16:41 55.4 °F 31.0 °F 30.14 in SSE 4.0 mph 22.0 mph 39 % 0.00 in
16:45 55.8 °F 29.9 °F 30.15 in SSE 6.0 mph 24.0 mph 37 % 0.00 in
16:50 55.2 °F 31.3 °F 30.14 in SSE 5.0 mph 25.0 mph 40 % 0.00 in
16:55 55.2 °F 31.3 °F 30.14 in SSE 5.0 mph 25.0 mph 40 % 0.00 in
16:56 54.5 °F 31.0 °F 30.14 in SSE 8.0 mph 13.0 mph 41 % 0.00 in
17:00 55.2 °F 31.3 °F 30.14 in SSE 5.0 mph 25.0 mph 40 % 0.00 in
17:05 54.4 °F 31.2 °F 30.15 in SSE 5.0 mph 13.0 mph 41 % 0.00 in
17:10 54.4 °F 31.2 °F 30.15 in SSE 5.0 mph 13.0 mph 41 % 0.00 in
17:12 54.1 °F 31.0 °F 30.15 in SSE 5.0 mph 10.0 mph 41 % 0.00 in
17:15 54.4 °F 31.2 °F 30.15 in SSE 5.0 mph 13.0 mph 41 % 0.00 in
17:20 54.0 °F 30.8 °F 30.15 in SSE 4.0 mph 19.0 mph 41 % 0.00 in
17:25 54.0 °F 30.8 °F 30.15 in SSE 4.0 mph 19.0 mph 41 % 0.00 in
17:26 53.7 °F 30.0 °F 30.15 in SSE 4.0 mph 10.0 mph 41 % 0.00 in
17:30 54.0 °F 30.8 °F 30.15 in SSE 4.0 mph 19.0 mph 41 % 0.00 in
17:35 53.5 °F 30.4 °F 30.15 in SSE 4.0 mph 11.0 mph 41 % 0.00 in
17:40 53.5 °F 30.4 °F 30.15 in SSE 4.0 mph 11.0 mph 41 % 0.00 in
17:41 53.1 °F 30.0 °F 30.15 in ESE 3.0 mph 10.0 mph 42 % 0.00 in
17:45 53.5 °F 30.4 °F 30.15 in SSE 4.0 mph 11.0 mph 41 % 0.00 in
17:50 53.0 °F 30.5 °F 30.15 in SE 5.0 mph 14.0 mph 42 % 0.00 in
17:55 53.0 °F 30.5 °F 30.15 in SE 5.0 mph 14.0 mph 42 % 0.00 in
17:56 52.4 °F 31.0 °F 30.14 in SSE 3.0 mph 13.0 mph 44 % 0.00 in
18:00 53.0 °F 30.5 °F 30.15 in SE 5.0 mph 14.0 mph 42 % 0.00 in
18:05 52.2 °F 31.5 °F 30.14 in SSE 4.0 mph 13.0 mph 45 % 0.00 in
18:10 52.2 °F 31.5 °F 30.14 in SSE 4.0 mph 13.0 mph 45 % 0.00 in
18:11 51.7 °F 31.0 °F 30.14 in SE 3.0 mph 18.0 mph 45 % 0.00 in
18:15 52.2 °F 31.5 °F 30.14 in SSE 4.0 mph 13.0 mph 45 % 0.00 in
18:20 51.5 °F 31.4 °F 30.15 in SE 5.0 mph 19.0 mph 46 % 0.00 in
18:25 51.5 °F 31.4 °F 30.15 in SE 5.0 mph 19.0 mph 46 % 0.00 in
18:26 51.0 °F 31.0 °F 30.15 in East 4.0 mph 13.0 mph 46 % 0.00 in
18:30 51.5 °F 31.4 °F 30.15 in SE 5.0 mph 19.0 mph 46 % 0.00 in
18:35 50.9 °F 30.9 °F 30.15 in SSE 5.0 mph 16.0 mph 46 % 0.00 in
18:40 50.9 °F 30.9 °F 30.15 in SSE 5.0 mph 16.0 mph 46 % 0.00 in
18:41 50.5 °F 30.0 °F 30.15 in SE 1.0 mph 14.0 mph 46 % 0.00 in
18:45 50.9 °F 30.9 °F 30.15 in SSE 5.0 mph 16.0 mph 46 % 0.00 in
18:50 50.4 °F 30.4 °F 30.15 in SSE 4.0 mph 16.0 mph 46 % 0.00 in
18:55 50.4 °F 30.4 °F 30.15 in SSE 4.0 mph 16.0 mph 46 % 0.00 in
18:56 50.0 °F 30.0 °F 30.16 in ESE 3.0 mph 11.0 mph 46 % 0.00 in
19:00 50.4 °F 30.4 °F 30.15 in SSE 4.0 mph 16.0 mph 46 % 0.00 in
19:05 49.9 °F 30.0 °F 30.16 in SSE 4.0 mph 11.0 mph 46 % 0.00 in
19:10 49.9 °F 30.0 °F 30.16 in SSE 4.0 mph 11.0 mph 46 % 0.00 in
19:11 49.6 °F 30.0 °F 30.16 in SSE 5.0 mph 9.0 mph 47 % 0.00 in
19:15 49.9 °F 30.0 °F 30.16 in SSE 4.0 mph 11.0 mph 46 % 0.00 in
19:20 49.5 °F 30.1 °F 30.16 in SSE 4.0 mph 10.0 mph 47 % 0.00 in
19:25 49.5 °F 30.1 °F 30.16 in SSE 4.0 mph 10.0 mph 47 % 0.00 in
19:26 49.2 °F 30.0 °F 30.16 in South 1.0 mph 7.0 mph 48 % 0.00 in
19:30 49.5 °F 30.1 °F 30.16 in SSE 4.0 mph 10.0 mph 47 % 0.00 in
19:35 49.0 °F 30.2 °F 30.17 in SSE 3.0 mph 10.0 mph 48 % 0.00 in
19:40 49.0 °F 30.2 °F 30.17 in SSE 3.0 mph 10.0 mph 48 % 0.00 in
19:41 48.7 °F 30.0 °F 30.17 in SSE 4.0 mph 11.0 mph 49 % 0.00 in
19:45 49.0 °F 30.2 °F 30.17 in SSE 3.0 mph 10.0 mph 48 % 0.00 in
19:50 48.5 °F 30.2 °F 30.18 in SSE 4.0 mph 12.0 mph 49 % 0.00 in
19:55 48.5 °F 30.2 °F 30.18 in SSE 4.0 mph 12.0 mph 49 % 0.00 in
19:56 48.2 °F 30.0 °F 30.17 in SSE 2.0 mph 9.0 mph 50 % 0.00 in
20:00 48.5 °F 30.2 °F 30.18 in SSE 4.0 mph 12.0 mph 49 % 0.00 in
20:05 48.1 °F 30.3 °F 30.17 in SSE 4.0 mph 12.0 mph 50 % 0.00 in
20:10 48.1 °F 30.3 °F 30.17 in SSE 4.0 mph 12.0 mph 50 % 0.00 in
20:11 47.9 °F 30.0 °F 30.17 in SE 6.0 mph 8.0 mph 50 % 0.00 in
20:15 48.1 °F 30.3 °F 30.17 in SSE 4.0 mph 12.0 mph 50 % 0.00 in
20:20 47.9 °F 30.6 °F 30.17 in SE 3.0 mph 9.0 mph 51 % 0.00 in
20:25 47.9 °F 30.6 °F 30.17 in SE 3.0 mph 9.0 mph 51 % 0.00 in
20:26 47.5 °F 30.0 °F 30.17 in ESE 1.0 mph 14.0 mph 52 % 0.00 in
20:30 47.9 °F 30.6 °F 30.17 in SE 3.0 mph 9.0 mph 51 % 0.00 in
20:35 47.5 °F 30.8 °F 30.17 in SSE 4.0 mph 14.0 mph 52 % 0.00 in
20:40 47.5 °F 30.8 °F 30.17 in SSE 4.0 mph 14.0 mph 52 % 0.00 in
20:41 47.4 °F 30.0 °F 30.17 in SSE 6.0 mph 12.0 mph 52 % 0.00 in
20:45 47.5 °F 30.8 °F 30.17 in SSE 4.0 mph 14.0 mph 52 % 0.00 in
20:50 47.3 °F 30.6 °F 30.17 in SSE 4.0 mph 14.0 mph 52 % 0.00 in
20:55 47.3 °F 30.6 °F 30.17 in SSE 4.0 mph 14.0 mph 52 % 0.00 in
20:56 47.2 °F 31.0 °F 30.18 in Calm   7.0 mph 53 % 0.00 in
21:00 47.3 °F 30.6 °F 30.17 in SSE 4.0 mph 14.0 mph 52 % 0.00 in
21:05 47.1 °F 30.9 °F 30.18 in SSE 3.0 mph 11.0 mph 53 % 0.00 in
21:10 47.1 °F 30.9 °F 30.18 in SSE 3.0 mph 11.0 mph 53 % 0.00 in
21:11 46.7 °F 30.0 °F 30.18 in SSE 4.0 mph 10.0 mph 53 % 0.00 in
21:15 47.1 °F 30.9 °F 30.18 in SSE 3.0 mph 11.0 mph 53 % 0.00 in
21:20 46.7 °F 30.5 °F 30.18 in SSE 3.0 mph 11.0 mph 53 % 0.00 in
21:25 46.7 °F 30.5 °F 30.18 in SSE 3.0 mph 11.0 mph 53 % 0.00 in
21:26 46.4 °F 30.0 °F 30.18 in SSE 1.0 mph 9.0 mph 54 % 0.00 in
21:30 46.7 °F 30.5 °F 30.18 in SSE 3.0 mph 11.0 mph 53 % 0.00 in
21:35 46.2 °F 30.9 °F 30.18 in SSE 3.0 mph 9.0 mph 55 % 0.00 in
21:40 46.2 °F 30.9 °F 30.18 in SSE 3.0 mph 9.0 mph 55 % 0.00 in
21:41 45.8 °F 30.0 °F 30.19 in SSE 4.0 mph 7.0 mph 55 % 0.00 in
21:45 46.2 °F 30.9 °F 30.18 in SSE 3.0 mph 9.0 mph 55 % 0.00 in
21:50 45.7 °F 30.9 °F 30.19 in South 3.0 mph 8.0 mph 56 % 0.00 in
21:55 45.7 °F 30.9 °F 30.19 in South 3.0 mph 8.0 mph 56 % 0.00 in
21:56 45.5 °F 31.0 °F 30.19 in SSE 2.0 mph 10.0 mph 57 % 0.00 in
22:00 45.7 °F 30.9 °F 30.19 in South 3.0 mph 8.0 mph 56 % 0.00 in
22:05 45.5 °F 31.1 °F 30.20 in SSE 3.0 mph 10.0 mph 57 % 0.00 in
22:10 45.5 °F 31.1 °F 30.20 in SSE 3.0 mph 10.0 mph 57 % 0.00 in
22:11 45.5 °F 31.0 °F 30.20 in SSE 2.0 mph 11.0 mph 57 % 0.00 in
22:15 45.5 °F 31.1 °F 30.20 in SSE 3.0 mph 10.0 mph 57 % 0.00 in
22:20 45.5 °F 31.1 °F 30.20 in SSE 3.0 mph 12.0 mph 57 % 0.00 in
22:25 45.5 °F 31.1 °F 30.20 in SSE 3.0 mph 12.0 mph 57 % 0.00 in
22:26 45.5 °F 31.0 °F 30.20 in SE 2.0 mph 9.0 mph 57 % 0.00 in
22:30 45.5 °F 31.1 °F 30.20 in SSE 3.0 mph 12.0 mph 57 % 0.00 in
22:35 45.5 °F 31.1 °F 30.20 in SE 3.0 mph 9.0 mph 57 % 0.00 in
22:40 45.5 °F 31.1 °F 30.20 in SE 3.0 mph 9.0 mph 57 % 0.00 in
22:41 45.6 °F 31.0 °F 30.20 in ESE 5.0 mph 12.0 mph 58 % 0.00 in
22:45 45.5 °F 31.1 °F 30.20 in SE 3.0 mph 9.0 mph 57 % 0.00 in
22:50 45.7 °F 31.8 °F 30.20 in SE 4.0 mph 12.0 mph 58 % 0.00 in
22:55 45.7 °F 31.8 °F 30.20 in SE 4.0 mph 12.0 mph 58 % 0.00 in
22:56 45.7 °F 31.0 °F 30.20 in SSE 3.0 mph 10.0 mph 58 % 0.00 in
23:00 45.7 °F 31.8 °F 30.20 in SE 4.0 mph 12.0 mph 58 % 0.00 in
23:05 45.7 °F 31.8 °F 30.20 in SSE 3.0 mph 10.0 mph 58 % 0.00 in
23:10 45.7 °F 31.8 °F 30.20 in SSE 3.0 mph 10.0 mph 58 % 0.00 in
23:11 45.7 °F 31.0 °F 30.19 in South 5.0 mph 8.0 mph 58 % 0.00 in
23:15 45.7 °F 31.8 °F 30.20 in SSE 3.0 mph 10.0 mph 58 % 0.00 in
23:20 45.7 °F 31.8 °F 30.19 in SSE 4.0 mph 9.0 mph 58 % 0.00 in
23:25 45.7 °F 31.8 °F 30.19 in SSE 4.0 mph 9.0 mph 58 % 0.00 in
23:26 45.8 °F 32.0 °F 30.19 in SSE 2.0 mph 11.0 mph 58 % 0.00 in
23:30 45.7 °F 31.8 °F 30.19 in SSE 4.0 mph 9.0 mph 58 % 0.00 in
23:35 45.8 °F 31.9 °F 30.19 in SE 4.0 mph 16.0 mph 58 % 0.00 in
23:40 45.8 °F 31.9 °F 30.19 in SE 4.0 mph 16.0 mph 58 % 0.00 in
23:41 45.8 °F 32.0 °F 30.18 in ESE 7.0 mph 8.0 mph 58 % 0.00 in
23:45 45.8 °F 31.9 °F 30.19 in SE 4.0 mph 16.0 mph 58 % 0.00 in
23:50 45.8 °F 31.9 °F 30.18 in SSE 4.0 mph 12.0 mph 58 % 0.00 in
23:55 45.8 °F 31.9 °F 30.18 in SSE 4.0 mph 12.0 mph 58 % 0.00 in
23:56 45.8 °F 32.0 °F 30.19 in SSE 2.0 mph 11.0 mph 58 % 0.00 in
Des Moines Weather and Climate
Compliments of Weather Underground - 4.5 mb

Script developed by  Jim McMurry - jmcmurry@mwt.net Adapted for the template by  Wim van der Kuil - Leuven-Template.eu

You find our weather info also at:

Weather Underground

Equipment we use:

Weather-station
Davis VP2 Plus

Weather-program
Davis Weatherlink.Com

Weather-server
iMac (Retina 4K, 21.5-inch, Late 2015)

Provider
Hostmonster.com

Davis VP2 Plus

Davis Weatherlink.Com

iMac (Retina 4K, 21.5-inch, Late 2015)

Hostmonster.com